Hourly Data Report for April 18, 2020

CLYDE RIVER A
NUNAVUT
Current Station Operator: NAVCAN

70°29'09.000" N
68°31'01.000" W
26.50 m
2400804
71090
YCY

Download Data

Hourly Data (April 2020)
Hourly Data Report for April 18, 2020
TIME
LST
Temp Definition
°C
Dew Point Definition
°C
Rel Hum Definition
%
Precip. Amount Definition
mm

Wind Dir Definition
10's deg

Wind Spd Definition
km/h
Visibility Definition
km
Stn Press Definition
kPa
Hmdx Definition


Wind Chill Definition


Weather Definition


00:00 -12.0 -14.0 85 0.0 31 30 16.1 97.75   -22 Snow
01:00 -11.7 -13.5 87 0.0 30 28 9.7 97.73   -21 Snow
02:00 -11.4 -13.0 88 0.0 30 34 8.1 97.72   -22 Snow
03:00 -11.3 -12.8 89 0.0 31 32 3.2 97.73   -22 Snow
04:00 -11.5 -13.0 89 0.0 30 28 4.0 97.75   -21 Snow
05:00 -11.5 -12.8 90 0.0 29 32 2.0 97.75   -22 Snow
06:00 -11.3 -13.1 87 0.0 29 26 9.7 97.78   -21 Snow
07:00 -11.0 -12.8 87 0.0 29 28 6.4 97.81   -21 Snow
08:00 -10.6 -12.5 86 0.0 28 18 8.1 97.87   -18 Snow
09:00 -10.1 -12.0 86 0.0 28 17 1.6 97.95   -17 Snow
10:00 -9.6 -11.4 87 0.0 25 13 2.0 98.00   -16 Snow
11:00 -8.9 -10.8 86 0.0 24 5 4.8 98.06   -12 Snow
12:00 -8.4 -10.4 86 0.2 21 4 4.8 98.13   -11 Snow
13:00 -8.9 -11.3 83 0.0 17 8 4.8 98.19   -13 Snow
14:00 -8.9 -12.3 77 0.0 19 9 11.3 98.25   -14 Snow
15:00 -9.0 -11.5 83 0.0 15 9 4.8 98.33   -14 Snow
16:00 -9.7 -11.7 86 0.0 17 5 4.8 98.41   -13 Snow
17:00 -11.4 -13.2 87 0.0 13 18 16.1 98.45   -19 Snow
18:00 -14.3 -15.6 90 0.0 11 17 16.1 98.50   -23 LegendNANA
19:00 -12.9 -15.1 84 0.0 13 17 16.1 98.55   -21 LegendNANA
20:00 -13.5 -16.0 82 0.0 15 17 16.1 98.62   -22 Snow
21:00 -15.7 -17.5 86 0.0 12 17 16.1 98.67   -24 LegendNANA
22:00 -18.8 -20.2 89 0.0 14 11 16.1 98.70   -26 LegendNANA
23:00 -16.6 -18.8 83 0.0   0 16.1 98.71     LegendNANA

Notes on Data Quality.

Legend

  • E = Estimated
  • M = Missing
  • NA = Not Available*
  • [empty] = Indicates an unobserved value
Date modified: